Starlink 3386

operational
NORAD ID: 51126 Int'l Des: 2022-005 Owner: SPXS Country: US Constellation: starlink
LEOCIRCULAR

Starlink 3386について

説明を読み込み中...

リアルタイム位置

3D地球を読み込み中...

次回通過

高度履歴

Altitude vs Time

uPlot chart will show altitude changes over time

軌道要素

1 51126U 22005Y 26036.16785299 .00000351 00000-0 40118-4 0 9995
2 51126 53.2178 85.1285 0001370 86.3023 273.8126 15.08834090223830
Epoch: Feb 5, 2026 • Age: 11 hours

現在のステータス

高度 543.6 km
速度 7.59 km/s
衛星直下点 -13.37°S, 70.85°E
打ち上げ日 Jan 19, 2022
運用期間 4 years
タイプ internet

技術仕様

分類 Payload
質量 297.00 kg
乾燥質量 275.00 kg
総質量 297.00 kg
長さ 0.20 m
直径 2.80 m
スパン 9.00 m
形状 Box + pan
製造者 SPXS
バスタイプ Starlink
フェーズステータス In Orbit
所有者/国 SPXS/US

大規模コンステレーション

Loading constellations...